����������;��������(kVARh)
2019-04-01 00:00;4
2019-04-01 00:15;4,8
2019-04-01 00:30;6,4
2019-04-01 00:45;5,5
2019-04-01 01:00;5,5
2019-04-01 01:15;6,5
2019-04-01 01:30;7,9
2019-04-01 01:45;7,25
2019-04-01 02:00;8,3
2019-04-01 02:15;8,15
2019-04-01 02:30;8,8
2019-04-01 02:45;8,7
2019-04-01 03:00;9,4
2019-04-01 03:15;9,55
2019-04-01 03:30;10,4
2019-04-01 03:45;10,75
2019-04-01 04:00;10,1
2019-04-01 04:15;4,5
2019-04-01 04:30;5
2019-04-01 04:45;4,45
2019-04-01 05:00;4,15
2019-04-01 05:15;5,15
2019-04-01 05:30;6,35
2019-04-01 05:45;5,5
2019-04-01 06:00;5,4
2019-04-01 06:15;4,3
2019-04-01 06:30;3,3
2019-04-01 06:45;2,35
2019-04-01 07:00;4,6
2019-04-01 07:15;6,05
2019-04-01 07:30;29,55
2019-04-01 07:45;25,55
2019-04-01 08:00;33,15
2019-04-01 08:15;38,75
2019-04-01 08:30;33,45
2019-04-01 08:45;37,75
2019-04-01 09:00;34,2
2019-04-01 09:15;44,75
2019-04-01 09:30;43,5
2019-04-01 09:45;36,75
2019-04-01 10:00;48
2019-04-01 10:15;48,4
2019-04-01 10:30;51,1
2019-04-01 10:45;57,65
2019-04-01 11:00;66,85
2019-04-01 11:15;68,2
2019-04-01 11:30;65,55
2019-04-01 11:45;70,1
2019-04-01 12:00;69,1
2019-04-01 12:15;64,65
2019-04-01 12:30;67,4
2019-04-01 12:45;71,65
2019-04-01 13:00;63,25
2019-04-01 13:15;69,2
2019-04-01 13:30;66,3
2019-04-01 13:45;64
2019-04-01 14:00;70,5
2019-04-01 14:15;62,55
2019-04-01 14:30;62,25
2019-04-01 14:45;68,25
2019-04-01 15:00;58,65
2019-04-01 15:15;60,9
2019-04-01 15:30;59,4
2019-04-01 15:45;61,6
2019-04-01 16:00;53,55
2019-04-01 16:15;56,6
2019-04-01 16:30;50,75
2019-04-01 16:45;54
2019-04-01 17:00;46,75
2019-04-01 17:15;48,4
2019-04-01 17:30;43,15
2019-04-01 17:45;54,2
2019-04-01 18:00;46,2
2019-04-01 18:15;42,9
2019-04-01 18:30;35,6
2019-04-01 18:45;31,3
2019-04-01 19:00;30
2019-04-01 19:15;30,35
2019-04-01 19:30;26,55
2019-04-01 19:45;22,75
2019-04-01 20:00;22
2019-04-01 20:15;22,55
2019-04-01 20:30;20,6
2019-04-01 20:45;18,4
2019-04-01 21:00;18
2019-04-01 21:15;18,15
2019-04-01 21:30;18,85
2019-04-01 21:45;15,95
2019-04-01 22:00;14,65
2019-04-01 22:15;11,75
2019-04-01 22:30;9,5
2019-04-01 22:45;10,1
2019-04-01 23:00;13,7
2019-04-01 23:15;11,7
2019-04-01 23:30;11,05
2019-04-01 23:45;8,4
2019-04-02 00:00;6,05
2019-04-02 00:15;6,35
2019-04-02 00:30;6,9
2019-04-02 00:45;7,2
2019-04-02 01:00;7,5
2019-04-02 01:15;7,5
2019-04-02 01:30;7,95
2019-04-02 01:45;7,55
2019-04-02 02:00;8,7
2019-04-02 02:15;9,75
2019-04-02 02:30;9,4
2019-04-02 02:45;9,3
2019-04-02 03:00;11,15
2019-04-02 03:15;11,2
2019-04-02 03:30;10,6
2019-04-02 03:45;11,2
2019-04-02 04:00;10,55
2019-04-02 04:15;9,05
2019-04-02 04:30;8,9
2019-04-02 04:45;10,1
2019-04-02 05:00;14,4
2019-04-02 05:15;13,3
2019-04-02 05:30;13,95
2019-04-02 05:45;13,35
2019-04-02 06:00;13,05
2019-04-02 06:15;12,7
2019-04-02 06:30;12
2019-04-02 06:45;15
2019-04-02 07:00;15,35
2019-04-02 07:15;14,75
2019-04-02 07:30;40,55
2019-04-02 07:45;17,5
2019-04-02 08:00;20,9
2019-04-02 08:15;19,9
2019-04-02 08:30;25,8
2019-04-02 08:45;25,35
2019-04-02 09:00;29,15
2019-04-02 09:15;29,3
2019-04-02 09:30;36,4
2019-04-02 09:45;41,05
2019-04-02 10:00;38,95
2019-04-02 10:15;51,5
2019-04-02 10:30;53,75
2019-04-02 10:45;57,6
2019-04-02 11:00;60,9
2019-04-02 11:15;60,15
2019-04-02 11:30;65,8
2019-04-02 11:45;66,65
2019-04-02 12:00;65,55
2019-04-02 12:15;70,55
2019-04-02 12:30;66,45
2019-04-02 12:45;64,55
2019-04-02 13:00;69,5
2019-04-02 13:15;65
2019-04-02 13:30;61,75
2019-04-02 13:45;64,7
2019-04-02 14:00;61,1
2019-04-02 14:15;60,6
2019-04-02 14:30;63
2019-04-02 14:45;56
2019-04-02 15:00;58,5
2019-04-02 15:15;54,7
2019-04-02 15:30;51,5
2019-04-02 15:45;49,4
2019-04-02 16:00;47,45
2019-04-02 16:15;47,25
2019-04-02 16:30;41,55
2019-04-02 16:45;41,85
2019-04-02 17:00;39,5
2019-04-02 17:15;41,4
2019-04-02 17:30;47,85
2019-04-02 17:45;43,35
2019-04-02 18:00;49,05
2019-04-02 18:15;36,3
2019-04-02 18:30;34,55
2019-04-02 18:45;31,85
2019-04-02 19:00;29,85
2019-04-02 19:15;29,2
2019-04-02 19:30;29,55
2019-04-02 19:45;32,55
2019-04-02 20:00;32,15
2019-04-02 20:15;28,9
2019-04-02 20:30;25,05
2019-04-02 20:45;20,95
2019-04-02 21:00;22,55
2019-04-02 21:15;24,7
2019-04-02 21:30;23,25
2019-04-02 21:45;20,55
2019-04-02 22:00;19,1
2019-04-02 22:15;19,65
2019-04-02 22:30;16,9
2019-04-02 22:45;13,4
2019-04-02 23:00;18,5
2019-04-02 23:15;17,9
2019-04-02 23:30;13,75
2019-04-02 23:45;15,5
2019-04-03 00:00;11,65
2019-04-03 00:15;13,35
2019-04-03 00:30;11,75
2019-04-03 00:45;10,75
2019-04-03 01:00;9,95
2019-04-03 01:15;10,55
2019-04-03 01:30;11,5
2019-04-03 01:45;11,65
2019-04-03 02:00;12,25
2019-04-03 02:15;11,3
2019-04-03 02:30;11,15
2019-04-03 02:45;11,35
2019-04-03 03:00;11,6
2019-04-03 03:15;12,4
2019-04-03 03:30;12,6
2019-04-03 03:45;12,4
2019-04-03 04:00;13,4
2019-04-03 04:15;12,6
2019-04-03 04:30;11,7
2019-04-03 04:45;12,95
2019-04-03 05:00;12,3
2019-04-03 05:15;12,55
2019-04-03 05:30;13,8
2019-04-03 05:45;15,9
2019-04-03 06:00;12,95
2019-04-03 06:15;13,2
2019-04-03 06:30;12,05
2019-04-03 06:45;10,8
2019-04-03 07:00;14,5
2019-04-03 07:15;18,8
2019-04-03 07:30;46,85
2019-04-03 07:45;14,1
2019-04-03 08:00;22,55
2019-04-03 08:15;21,8
2019-04-03 08:30;24,1
2019-04-03 08:45;28,45
2019-04-03 09:00;39
2019-04-03 09:15;37,55
2019-04-03 09:30;49,3
2019-04-03 09:45;50,2
2019-04-03 10:00;54,7
2019-04-03 10:15;55,2
2019-04-03 10:30;48,8
2019-04-03 10:45;55,65
2019-04-03 11:00;55,95
2019-04-03 11:15;55,45
2019-04-03 11:30;66,75
2019-04-03 11:45;62,9
2019-04-03 12:00;67,85
2019-04-03 12:15;67,85
2019-04-03 12:30;61,55
2019-04-03 12:45;66,75
2019-04-03 13:00;63
2019-04-03 13:15;66,45
2019-04-03 13:30;60,4
2019-04-03 13:45;62,35
2019-04-03 14:00;58,4
2019-04-03 14:15;64,05
2019-04-03 14:30;61,3
2019-04-03 14:45;56,95
2019-04-03 15:00;59,2
2019-04-03 15:15;60,2
2019-04-03 15:30;61,4
2019-04-03 15:45;54,45
2019-04-03 16:00;55,75
2019-04-03 16:15;49,9
2019-04-03 16:30;49,15
2019-04-03 16:45;46,75
2019-04-03 17:00;43,3
2019-04-03 17:15;50,05
2019-04-03 17:30;43,75
2019-04-03 17:45;45,75
2019-04-03 18:00;46,8
2019-04-03 18:15;46,75
2019-04-03 18:30;45,75
2019-04-03 18:45;42,35
2019-04-03 19:00;42,2
2019-04-03 19:15;43,6
2019-04-03 19:30;43,4
2019-04-03 19:45;43,3
2019-04-03 20:00;38,55
2019-04-03 20:15;39,55
2019-04-03 20:30;34,9
2019-04-03 20:45;31,5
2019-04-03 21:00;30,6
2019-04-03 21:15;30,75
2019-04-03 21:30;30,75
2019-04-03 21:45;26,25
2019-04-03 22:00;22,8
2019-04-03 22:15;22
2019-04-03 22:30;23,35
2019-04-03 22:45;18,6
2019-04-03 23:00;19,55
2019-04-03 23:15;17,3
2019-04-03 23:30;14,05
2019-04-03 23:45;15,4
2019-04-04 00:00;13,3
2019-04-04 00:15;13
2019-04-04 00:30;12,7
2019-04-04 00:45;12,85
2019-04-04 01:00;13,75
2019-04-04 01:15;11,25
2019-04-04 01:30;9,05
2019-04-04 01:45;7,8
2019-04-04 02:00;9
2019-04-04 02:15;9,65
2019-04-04 02:30;9,4
2019-04-04 02:45;10,55
2019-04-04 03:00;10,45
2019-04-04 03:15;10,2
2019-04-04 03:30;11,7
2019-04-04 03:45;11,35
2019-04-04 04:00;11,05
2019-04-04 04:15;10,75
2019-04-04 04:30;11,65
2019-04-04 04:45;11,25
2019-04-04 05:00;11,35
2019-04-04 05:15;10,95
2019-04-04 05:30;10,45
2019-04-04 05:45;11
2019-04-04 06:00;12,05
2019-04-04 06:15;10,65
2019-04-04 06:30;15,45
2019-04-04 06:45;15,95
2019-04-04 07:00;15,9
2019-04-04 07:15;24,35
2019-04-04 07:30;53,05
2019-04-04 07:45;20,75
2019-04-04 08:00;23,85
2019-04-04 08:15;18,65
2019-04-04 08:30;28,95
2019-04-04 08:45;21,05
2019-04-04 09:00;29,05
2019-04-04 09:15;23,35
2019-04-04 09:30;35,85
2019-04-04 09:45;35,45
2019-04-04 10:00;42,9
2019-04-04 10:15;42,85
2019-04-04 10:30;42,75
2019-04-04 10:45;46
2019-04-04 11:00;45,4
2019-04-04 11:15;54,05
2019-04-04 11:30;52,25
2019-04-04 11:45;52,45
2019-04-04 12:00;52,7
2019-04-04 12:15;55,85
2019-04-04 12:30;53,6
2019-04-04 12:45;49,45
2019-04-04 13:00;48,45
2019-04-04 13:15;53,8
2019-04-04 13:30;52,7
2019-04-04 13:45;46,9
2019-04-04 14:00;51,2
2019-04-04 14:15;43,25
2019-04-04 14:30;45,1
2019-04-04 14:45;39,95
2019-04-04 15:00;47,15
2019-04-04 15:15;39,65
2019-04-04 15:30;45,4
2019-04-04 15:45;39,45
2019-04-04 16:00;40,7
2019-04-04 16:15;45,7
2019-04-04 16:30;37,15
2019-04-04 16:45;41,2
2019-04-04 17:00;35,3
2019-04-04 17:15;36
2019-04-04 17:30;40
2019-04-04 17:45;34,95
2019-04-04 18:00;39,15
2019-04-04 18:15;33,3
2019-04-04 18:30;31,45
2019-04-04 18:45;36,65
2019-04-04 19:00;35,65
2019-04-04 19:15;33,3
2019-04-04 19:30;32,15
2019-04-04 19:45;29,4
2019-04-04 20:00;25,2
2019-04-04 20:15;22,85
2019-04-04 20:30;22,4
2019-04-04 20:45;22,5
2019-04-04 21:00;22,35
2019-04-04 21:15;23,1
2019-04-04 21:30;21,75
2019-04-04 21:45;21,5
2019-04-04 22:00;17,05
2019-04-04 22:15;14,65
2019-04-04 22:30;16,15
2019-04-04 22:45;11,5
2019-04-04 23:00;12,65
2019-04-04 23:15;13,2
2019-04-04 23:30;13,35
2019-04-04 23:45;13,65
2019-04-05 00:00;12,65
2019-04-05 00:15;14,2
2019-04-05 00:30;10,05
2019-04-05 00:45;8,7
2019-04-05 01:00;10,5
2019-04-05 01:15;9,75
2019-04-05 01:30;9,5
2019-04-05 01:45;9,6
2019-04-05 02:00;9,9
2019-04-05 02:15;9,75
2019-04-05 02:30;10
2019-04-05 02:45;11,75
2019-04-05 03:00;11,75
2019-04-05 03:15;13
2019-04-05 03:30;13,35
2019-04-05 03:45;14,6
2019-04-05 04:00;14,1
2019-04-05 04:15;12
2019-04-05 04:30;12,5
2019-04-05 04:45;13
2019-04-05 05:00;12,5
2019-04-05 05:15;12,7
2019-04-05 05:30;13,2
2019-04-05 05:45;12,35
2019-04-05 06:00;12,7
2019-04-05 06:15;12,75
2019-04-05 06:30;13,3
2019-04-05 06:45;16,35
2019-04-05 07:00;15,9
2019-04-05 07:15;16,1
2019-04-05 07:30;44,1
2019-04-05 07:45;18,5
2019-04-05 08:00;24,15
2019-04-05 08:15;20,6
2019-04-05 08:30;29,7
2019-04-05 08:45;22
2019-04-05 09:00;33,8
2019-04-05 09:15;31,6
2019-04-05 09:30;37,8
2019-04-05 09:45;38,2
2019-04-05 10:00;46,15
2019-04-05 10:15;49,3
2019-04-05 10:30;58,05
2019-04-05 10:45;52,2
2019-04-05 11:00;60,4
2019-04-05 11:15;55,25
2019-04-05 11:30;62,55
2019-04-05 11:45;59,65
2019-04-05 12:00;64,25
2019-04-05 12:15;63,35
2019-04-05 12:30;57,7
2019-04-05 12:45;64,2
2019-04-05 13:00;57
2019-04-05 13:15;62,45
2019-04-05 13:30;57,4
2019-04-05 13:45;63,15
2019-04-05 14:00;53,55
2019-04-05 14:15;58,9
2019-04-05 14:30;52,95
2019-04-05 14:45;59,15
2019-04-05 15:00;53,25
2019-04-05 15:15;52,65
2019-04-05 15:30;49,6
2019-04-05 15:45;48,2
2019-04-05 16:00;52,8
2019-04-05 16:15;43,15
2019-04-05 16:30;46,65
2019-04-05 16:45;36,9
2019-04-05 17:00;36,8
2019-04-05 17:15;40,75
2019-04-05 17:30;32,75
2019-04-05 17:45;35,9
2019-04-05 18:00;25,8
2019-04-05 18:15;18,9
2019-04-05 18:30;17,35
2019-04-05 18:45;19,85
2019-04-05 19:00;23,85
2019-04-05 19:15;23,3
2019-04-05 19:30;21,55
2019-04-05 19:45;21,1
2019-04-05 20:00;17,8
2019-04-05 20:15;13,65
2019-04-05 20:30;12,05
2019-04-05 20:45;6,95
2019-04-05 21:00;5,85
2019-04-05 21:15;5,25
2019-04-05 21:30;7,25
2019-04-05 21:45;3,8
2019-04-05 22:00;0,5
2019-04-05 22:15;0,1
2019-04-05 22:30;0
2019-04-05 22:45;0,1
2019-04-05 23:00;2,55
2019-04-05 23:15;0,6
2019-04-05 23:30;4,05
2019-04-05 23:45;3,3
2019-04-06 00:00;0,4
2019-04-06 00:15;1,1
2019-04-06 00:30;2,6
2019-04-06 00:45;2,9
2019-04-06 01:00;0,4
2019-04-06 01:15;0,65
2019-04-06 01:30;0,25
2019-04-06 01:45;0,3
2019-04-06 02:00;0,4
2019-04-06 02:15;0
2019-04-06 02:30;0
2019-04-06 02:45;0,15
2019-04-06 03:00;0,05
2019-04-06 03:15;0,05
2019-04-06 03:30;1,35
2019-04-06 03:45;3,15
2019-04-06 04:00;2,75
2019-04-06 04:15;3,35
2019-04-06 04:30;3,55
2019-04-06 04:45;3,25
2019-04-06 05:00;2,6
2019-04-06 05:15;2,75
2019-04-06 05:30;1,5
2019-04-06 05:45;2,6
2019-04-06 06:00;1,9
2019-04-06 06:15;1,25
2019-04-06 06:30;1,4
2019-04-06 06:45;0,5
2019-04-06 07:00;0
2019-04-06 07:15;0,6
2019-04-06 07:30;1,6
2019-04-06 07:45;6,2
2019-04-06 08:00;4,6
2019-04-06 08:15;4,75
2019-04-06 08:30;3,65
2019-04-06 08:45;6,15
2019-04-06 09:00;6,05
2019-04-06 09:15;2,15
2019-04-06 09:30;4,3
2019-04-06 09:45;4,9
2019-04-06 10:00;5,25
2019-04-06 10:15;4,65
2019-04-06 10:30;2,95
2019-04-06 10:45;2,3
2019-04-06 11:00;3,75
2019-04-06 11:15;3,4
2019-04-06 11:30;3,4
2019-04-06 11:45;5,05
2019-04-06 12:00;4,95
2019-04-06 12:15;5,7
2019-04-06 12:30;7,7
2019-04-06 12:45;7,55
2019-04-06 13:00;7,35
2019-04-06 13:15;8,85
2019-04-06 13:30;8,45
2019-04-06 13:45;8,75
2019-04-06 14:00;10,4
2019-04-06 14:15;9,1
2019-04-06 14:30;10,2
2019-04-06 14:45;9,85
2019-04-06 15:00;8,6
2019-04-06 15:15;8,15
2019-04-06 15:30;8,65
2019-04-06 15:45;8,55
2019-04-06 16:00;7,3
2019-04-06 16:15;9
2019-04-06 16:30;10
2019-04-06 16:45;12,45
2019-04-06 17:00;10,7
2019-04-06 17:15;10,75
2019-04-06 17:30;10,85
2019-04-06 17:45;10,7
2019-04-06 18:00;11,75
2019-04-06 18:15;10,25
2019-04-06 18:30;9,6
2019-04-06 18:45;12,7
2019-04-06 19:00;12,8
2019-04-06 19:15;9,3
2019-04-06 19:30;9,25
2019-04-06 19:45;9,15
2019-04-06 20:00;9,2
2019-04-06 20:15;7,6
2019-04-06 20:30;8,1
2019-04-06 20:45;8,25
2019-04-06 21:00;8,05
2019-04-06 21:15;7,5
2019-04-06 21:30;7,75
2019-04-06 21:45;7
2019-04-06 22:00;7,6
2019-04-06 22:15;5,75
2019-04-06 22:30;4,6
2019-04-06 22:45;0,9
2019-04-06 23:00;0,7
2019-04-06 23:15;0,85
2019-04-06 23:30;1
2019-04-06 23:45;1,65
2019-04-07 00:00;0,4
2019-04-07 00:15;0,05
2019-04-07 00:30;0,05
2019-04-07 00:45;1,1
2019-04-07 01:00;1,05
2019-04-07 01:15;1,05
2019-04-07 01:30;0,3
2019-04-07 01:45;0,6
2019-04-07 02:00;0,4
2019-04-07 02:15;0
2019-04-07 02:30;0
2019-04-07 02:45;0
2019-04-07 03:00;0
2019-04-07 03:15;0
2019-04-07 03:30;0,05
2019-04-07 03:45;0,2
2019-04-07 04:00;0
2019-04-07 04:15;0
2019-04-07 04:30;0
2019-04-07 04:45;0
2019-04-07 05:00;0
2019-04-07 05:15;0
2019-04-07 05:30;0,45
2019-04-07 05:45;0,15
2019-04-07 06:00;0
2019-04-07 06:15;1,1
2019-04-07 06:30;4,35
2019-04-07 06:45;3,25
2019-04-07 07:00;1,45
2019-04-07 07:15;1,1
2019-04-07 07:30;1,4
2019-04-07 07:45;1,9
2019-04-07 08:00;2,95
2019-04-07 08:15;4
2019-04-07 08:30;3,5
2019-04-07 08:45;3,5
2019-04-07 09:00;4,2
2019-04-07 09:15;2,4
2019-04-07 09:30;1,65
2019-04-07 09:45;4,7
2019-04-07 10:00;3,05
2019-04-07 10:15;2,45
2019-04-07 10:30;4,25
2019-04-07 10:45;3,65
2019-04-07 11:00;5,25
2019-04-07 11:15;4,8
2019-04-07 11:30;5,15
2019-04-07 11:45;4,2
2019-04-07 12:00;6,6
2019-04-07 12:15;9,3
2019-04-07 12:30;11,2
2019-04-07 12:45;12,3
2019-04-07 13:00;11,3
2019-04-07 13:15;10,7
2019-04-07 13:30;11,75
2019-04-07 13:45;10,95
2019-04-07 14:00;8,5
2019-04-07 14:15;5,6
2019-04-07 14:30;4,6
2019-04-07 14:45;5,95
2019-04-07 15:00;6,5
2019-04-07 15:15;6,05
2019-04-07 15:30;6,45
2019-04-07 15:45;5,75
2019-04-07 16:00;6,35
2019-04-07 16:15;6,4
2019-04-07 16:30;5,75
2019-04-07 16:45;5,6
2019-04-07 17:00;6,5
2019-04-07 17:15;7,4
2019-04-07 17:30;8,2
2019-04-07 17:45;8,95
2019-04-07 18:00;6,65
2019-04-07 18:15;4,5
2019-04-07 18:30;5
2019-04-07 18:45;5,9
2019-04-07 19:00;6,45
2019-04-07 19:15;6,5
2019-04-07 19:30;4,65
2019-04-07 19:45;5,15
2019-04-07 20:00;7,65
2019-04-07 20:15;6,5
2019-04-07 20:30;5,7
2019-04-07 20:45;6,45
2019-04-07 21:00;6,85
2019-04-07 21:15;7,3
2019-04-07 21:30;6,25
2019-04-07 21:45;7,35
2019-04-07 22:00;7,2
2019-04-07 22:15;3,4
2019-04-07 22:30;4,35
2019-04-07 22:45;0,4
2019-04-07 23:00;1,35
2019-04-07 23:15;0,95
2019-04-07 23:30;2,15
2019-04-07 23:45;3,35

